GW0309 Weather Reports


time (UTC)temp
F
wind
direction
speed
knots
gust
knots
rain 1hr
in
rain 24hr
in
rain mn
in
humidity
%
barometer
mb
20260510164608 0 46 3.5 7.8 0.00 0.00 0.00 1066.9
20260510164104 0 40 2.6 5.2 0.00 0.00 0.00 1066.9
20260510163554 0 326 4.3 5.2 0.00 0.00 0.00 1066.9
20260510163050 0 54 4.3 7.8 0.00 0.00 0.00 1066.8
20260510162545 0 63 2.6 6.1 0.00 0.00 0.00 1066.6
20260510162042 0 59 2.6 8.7 0.00 0.00 0.00 1066.6
20260510161537 0 122 1.7 4.3 0.00 0.00 0.00 1066.7
20260510161034 0 104 2.6 6.1 0.00 0.00 0.00 1066.6
20260510160526 0 41 4.3 6.1 0.00 0.00 0.00 1066.5
20260510160026 0 85 2.6 4.3 0.00 0.00 0.00 1066.6
20260510155522 0 44 2.6 5.2 0.00 0.00 0.00 1066.2
20260510155019 0 2 3.5 5.2 0.00 0.00 0.00 1066.3
20260510154515 0 89 2.6 5.2 0.00 0.00 0.00 1066.3
20260510154014 0 68 2.6 6.1 0.00 0.00 0.00 1066.5
20260510153509 0 84 3.5 7.0 0.00 0.00 0.00 1066.6
20260510153007 0 47 4.3 6.1 0.00 0.00 0.00 1066.5
20260510152504 0 119 0.9 1.7 0.00 0.00 0.00 1066.8
20260510152000 0 47 4.3 6.1 0.00 0.00 0.00 1066.8
20260510151457 0 71 2.6 2.6 0.00 0.00 0.00 1066.7
20260510150954 0 306 4.3 7.0 0.00 0.00 0.00 1067.0
20260510150449 0 44 3.5 4.3 0.00 0.00 0.00 1066.8
20260510145945 0 68 5.2 7.0 0.00 0.00 0.00 1066.8
20260510145442 0 58 3.5 7.8 0.00 0.00 0.00 1067.0
20260510144938 0 45 1.7 4.3 0.00 0.00 0.00 1066.5
20260510144435 0 36 1.7 4.3 0.00 0.00 0.00 1066.7
20260510143931 0 307 3.5 5.2 0.00 0.00 0.00 1066.6
20260510143426 0 32 2.6 4.3 0.00 0.00 0.00 1066.7
20260510142924 0 49 2.6 6.1 0.00 0.00 0.00 1066.6
20260510142421 0 72 2.6 4.3 0.00 0.00 0.00 1066.4
20260510141917 0 59 2.6 4.3 0.00 0.00 0.00 1066.1
20260510141414 0 89 2.6 2.6 0.00 0.00 0.00 1066.2
20260510140912 0 57 2.6 2.6 0.00 0.00 0.00 1066.1
20260510140408 0 53 2.6 4.3 0.00 0.00 0.00 1065.7
20260510135907 0 46 2.6 4.3 0.00 0.00 0.00 1065.7
20260510135403 0 81 2.6 4.3 0.00 0.00 0.00 1065.6
20260510134900 0 78 0.9 2.6 0.00 0.00 0.00 1065.3
20260510134357 0 49 3.5 5.2 0.00 0.00 0.00 1065.5
20260510133853 0 83 1.7 5.2 0.00 0.00 0.00 1065.6
20260510133349 0 63 3.5 6.1 0.00 0.00 0.00 1065.6
20260510132845 0 42 4.3 5.2 0.00 0.00 0.00 1065.4
20260510132343 0 57 1.7 4.3 0.00 0.00 0.00 1065.5
20260510131840 0 56 2.6 2.6 0.00 0.00 0.00 1065.3
20260510131337 0 131 1.7 4.3 0.00 0.00 0.00 1065.1
20260510130834 0 34 2.6 4.3 0.00 0.00 0.00 1064.9
20260510130331 0 37 4.3 5.2 0.00 0.00 0.00 1064.9
20260510125827 0 73 1.7 2.6 0.00 0.00 0.00 1064.8
20260510125323 0 60 2.6 5.2 0.00 0.00 0.00 1064.6
20260510124820 0 50 3.5 5.2 0.00 0.00 0.00 1064.7
20260510124318 0 61 2.6 6.1 0.00 0.00 0.00 1064.7
20260510123813 0 56 2.6 4.3 0.00 0.00 0.00 1064.7
20260510123309 0 317 3.5 5.2 0.00 0.00 0.00 1064.7
20260510122805 0 70 1.7 5.2 0.00 0.00 0.00 1064.6
20260510122301 0 92 1.7 4.3 0.00 0.00 0.00 1064.4
20260510121758 0 80 1.7 2.6 0.00 0.00 0.00 1064.6
20260510121256 0 60 1.7 2.6 0.00 0.00 0.00 1064.7
20260510120753 0 91 0.9 2.6 0.00 0.00 0.00 1064.5
20260510120249 0 55 2.6 2.6 0.00 0.00 0.00 1064.0
20260510115745 0 70 1.7 4.3 0.00 0.00 0.00 1064.2
20260510115243 0 50 1.7 5.2 0.00 0.00 0.00 1063.8
20260510114738 0 57 1.7 2.6 0.00 0.00 0.00 1063.9
20260510114236 0 29 2.6 4.3 0.00 0.00 0.00 1063.7
20260510113731 0 74 1.7 2.6 0.00 0.00 0.00 1063.7
20260510113228 0 52 1.7 2.6 0.00 0.00 0.00 1063.6
20260510112724 0 106 0.9 2.6 0.00 0.00 0.00 1063.4
20260510112221 0 49 1.7 2.6 0.00 0.00 0.00 1063.0
20260510111717 0 63 2.6 5.2 0.00 0.00 0.00 1063.1
20260510111215 0 62 1.7 4.3 0.00 0.00 0.00 1063.5
20260510110714 0 35 2.6 2.6 0.00 0.00 0.00 1063.5
20260510110212 0 54 1.7 2.6 0.00 0.00 0.00 1063.6
20260510105712 0 42 1.7 4.3 0.00 0.00 0.00 1063.4
20260510105206 0 47 2.6 5.2 0.00 0.00 0.00 1063.4
20260510104703 0 336 2.6 4.3 0.00 0.00 0.00 1063.4
20260510104200 0 33 2.6 4.3 0.00 0.00 0.00 1063.0
20260510103657 0 65 1.7 2.6 0.00 0.00 0.00 1062.7
20260510103154 0 92 1.7 2.6 0.00 0.00 0.00 1062.9
20260510102654 0 52 2.6 2.6 0.00 0.00 0.00 1062.7
20260510102150 0 77 0.9 1.7 0.00 0.00 0.00 1062.5
20260510101648 0 84 0.9 1.7 0.00 0.00 0.00 1062.6
20260510101146 0 95 0.0 0.9 0.00 0.00 0.00 1062.6
20260510100641 0 114 0.9 0.9 0.00 0.00 0.00 1062.6
20260510100139 0 113 0.9 1.7 0.00 0.00 0.00 1062.3
20260510095635 0 90 1.7 1.7 0.00 0.00 0.00 1062.2
20260510095131 0 112 0.9 1.7 0.00 0.00 0.00 1062.1
20260510094629 0 71 0.9 1.7 0.00 0.00 0.00 1062.2
20260510094126 0 87 0.9 4.3 0.00 0.00 0.00 1061.9
20260510093622 0 63 1.7 1.7 0.00 0.00 0.00 1062.1
20260510093119 0 82 1.7 1.7 0.00 0.00 0.00 1062.0
20260510092615 0 95 0.0 1.7 0.00 0.00 0.00 1062.0
20260510092115 0 107 0.9 1.7 0.00 0.00 0.00 1062.0
20260510091612 0 74 0.9 1.7 0.00 0.00 0.00 1062.1
20260510091108 0 89 0.9 1.7 0.00 0.00 0.00 1061.9
20260510090605 0 116 0.0 1.7 0.00 0.00 0.00 1061.9
20260510090101 0 67 1.7 2.6 0.00 0.00 0.00 1062.0
20260510085556 0 90 1.7 2.6 0.00 0.00 0.00 1061.9
20260510085052 0 96 0.9 1.7 0.00 0.00 0.00 1061.6
20260510084549 0 80 0.9 1.7 0.00 0.00 0.00 1061.6
20260510084046 0 99 0.9 0.9 0.00 0.00 0.00 1061.5
20260510083542 0 110 1.7 1.7 0.00 0.00 0.00 1061.4
20260510083038 0 124 0.0 1.7 0.00 0.00 0.00 1061.4
20260510082535 0 119 0.0 0.0 0.00 0.00 0.00 1061.5
20260510082031 0 97 0.9 1.7 0.00 0.00 0.00 1061.4
20260510081526 0 99 0.9 0.9 0.00 0.00 0.00 1061.2
20260510081022 0 119 0.0 0.9 0.00 0.00 0.00 1061.3
20260510080521 0 115 0.0 0.9 0.00 0.00 0.00 1061.3
20260510080018 0 96 0.9 0.9 0.00 0.00 0.00 1061.2
20260510075515 0 85 0.9 1.7 0.00 0.00 0.00 1061.1
20260510075012 0 71 0.9 1.7 0.00 0.00 0.00 1061.0
20260510074510 0 66 0.9 1.7 0.00 0.00 0.00 1061.0
20260510074005 0 107 0.0 0.9 0.00 0.00 0.00 1061.2
20260510073501 0 116 0.0 0.0 0.00 0.00 0.00 1061.1
20260510072958 0 74 0.9 0.9 0.00 0.00 0.00 1060.9
20260510072455 0 68 1.7 1.7 0.00 0.00 0.00 1061.1
20260510071950 0 46 1.7 5.2 0.00 0.00 0.00 1061.4
20260510071447 0 100 0.0 0.9 0.00 0.00 0.00 1061.2
20260510070945 0 111 0.0 0.9 0.00 0.00 0.00 1061.1
20260510070442 0 124 0.0 0.9 0.00 0.00 0.00 1061.3
20260510065938 0 123 0.0 0.9 0.00 0.00 0.00 1060.9
20260510065435 0 124 0.0 0.0 0.00 0.00 0.00 1060.9
20260510064931 0 129 0.0 0.0 0.00 0.00 0.00 1060.8
20260510064428 0 117 0.0 0.0 0.00 0.00 0.00 1060.8
20260510063925 0 118 0.0 0.9 0.00 0.00 0.00 1060.9
20260510063421 0 127 0.0 0.0 0.00 0.00 0.00 1060.9
20260510062919 0 128 0.0 0.0 0.00 0.00 0.00 1060.6
20260510062414 0 127 0.0 0.0 0.00 0.00 0.00 1060.9
20260510061910 0 128 0.0 0.0 0.00 0.00 0.00 1060.6
20260510061407 0 129 0.0 0.9 0.00 0.00 0.00 1061.0
20260510060902 0 136 0.0 0.9 0.00 0.00 0.00 1060.8
20260510060359 0 139 0.9 1.7 0.00 0.00 0.00 1060.7
20260510055850 0 150 1.7 1.7 0.00 0.00 0.00 1060.9
20260510055349 0 137 0.9 0.9 0.00 0.00 0.00 1061.0
20260510054843 0 155 1.7 2.6 0.00 0.00 0.00 1060.9
20260510054339 0 164 1.7 2.6 0.00 0.00 0.00 1061.0
20260510053833 0 149 1.7 1.7 0.00 0.00 0.00 1061.0
20260510053329 0 147 0.9 0.9 0.00 0.00 0.00 1060.6
20260510052826 0 133 0.0 0.0 0.00 0.00 0.00 1061.1
20260510052322 0 121 0.0 0.0 0.00 0.00 0.00 1060.7
20260510051818 0 121 0.0 0.0 0.00 0.00 0.00 1060.8
20260510051315 0 127 0.0 0.9 0.00 0.00 0.00 1060.9
20260510050811 0 133 0.0 0.0 0.00 0.00 0.00 1060.7
20260510050303 0 121 0.0 0.9 0.00 0.00 0.00 1060.8
20260510045800 0 135 0.0 0.0 0.00 0.01 0.01 1060.4
20260510045256 0 129 0.0 0.0 0.00 0.01 0.01 1060.3
20260510044754 0 127 0.0 0.0 0.00 0.01 0.01 1060.2
20260510044250 0 124 0.0 0.0 0.00 0.01 0.01 1060.2
20260510043746 0 119 0.0 0.0 0.00 0.01 0.01 1060.3
20260510043242 0 99 0.9 1.7 0.00 0.01 0.01 1060.3
20260510042740 0 96 0.9 1.7 0.00 0.01 0.01 1060.3
20260510042235 0 109 0.9 1.7 0.00 0.01 0.01 1060.1
20260510041732 0 326 2.6 5.2 0.00 0.01 0.01 1060.0
20260510041230 0 68 2.6 6.1 0.00 0.01 0.01 1060.0
20260510040726 0 358 4.3 7.8 0.00 0.01 0.01 1059.7
20260510040223 0 131 0.0 0.0 0.00 0.01 0.01 1059.5
20260510035719 0 128 0.0 0.0 0.00 0.01 0.01 1059.2
20260510035215 0 134 0.0 0.9 0.00 0.01 0.01 1059.2
20260510034711 0 131 0.0 0.9 0.00 0.01 0.01 1059.4
20260510034209 0 132 0.0 0.9 0.00 0.01 0.01 1059.3
20260510033659 0 134 0.0 0.9 0.00 0.01 0.01 1059.1
20260510033157 0 138 0.9 0.9 0.00 0.01 0.01 1059.1
20260510032653 0 130 0.0 0.0 0.00 0.01 0.01 1059.2
20260510032148 0 134 0.0 0.0 0.00 0.01 0.01 1059.0
20260510031643 0 133 0.0 0.9 0.00 0.01 0.01 1059.1
20260510031140 0 139 0.0 0.9 0.00 0.01 0.01 1059.0
20260510030634 0 132 0.0 0.0 0.00 0.01 0.01 1059.1
20260510030132 0 137 0.0 0.9 0.00 0.01 0.01 1059.1
20260510025629 0 132 0.0 0.0 0.00 0.01 0.01 1059.0
20260510025126 0 132 0.0 0.0 0.00 0.01 0.01 1058.9
20260510024623 0 137 0.9 0.9 0.00 0.01 0.01 1058.9
20260510024119 0 132 0.0 0.0 0.00 0.01 0.01 1059.0
20260510023615 0 134 0.0 0.0 0.00 0.01 0.01 1058.7
20260510023113 0 134 0.0 0.0 0.00 0.01 0.01 1058.3
20260510022613 0 134 0.0 0.9 0.00 0.01 0.01 1058.5
20260510022108 0 129 0.0 0.0 0.00 0.01 0.01 1058.4
20260510021604 0 142 0.9 1.7 0.00 0.01 0.01 1058.1
20260510021102 0 143 0.9 1.7 0.00 0.01 0.01 1058.2
20260510020555 0 143 0.0 0.0 0.00 0.01 0.01 1058.1
20260510020051 0 129 0.0 0.0 0.00 0.01 0.01 1058.0
20260510015548 0 128 0.0 0.0 0.00 0.01 0.01 1058.0
20260510015044 0 129 0.0 0.0 0.00 0.01 0.01 1057.9
20260510014540 0 133 0.0 0.0 0.00 0.01 0.01 1057.9
20260510014037 0 129 0.0 0.0 0.00 0.01 0.01 1057.7
20260510013532 0 131 0.0 0.0 0.00 0.01 0.01 1057.4
20260510013027 0 132 0.0 0.0 0.00 0.01 0.01 1057.3
20260510012522 0 128 0.0 0.0 0.00 0.01 0.01 1057.2
20260510012019 0 129 0.0 0.0 0.00 0.01 0.01 1057.5
20260510011518 0 130 0.0 0.0 0.00 0.01 0.01 1057.2
20260510011014 0 128 0.0 0.0 0.00 0.01 0.01 1057.3
20260510010511 0 129 0.0 0.0 0.00 0.01 0.01 1057.1
20260510010008 0 128 0.0 0.0 0.00 0.01 0.01 1057.2
20260510005504 0 131 0.0 0.0 0.00 0.01 0.01 1057.3
20260510005002 0 128 0.0 0.0 0.00 0.01 0.01 1057.3
20260510004459 0 129 0.0 0.0 0.00 0.01 0.01 1057.0
20260510003957 0 128 0.0 0.0 0.00 0.01 0.01 1057.0
20260510003453 0 128 0.0 0.0 0.00 0.01 0.01 1057.0
20260510002948 0 129 0.0 0.0 0.00 0.01 0.01 1057.2
20260510002444 0 128 0.0 0.0 0.00 0.01 0.01 1057.0
20260510001941 0 128 0.0 0.0 0.00 0.01 0.01 1056.9
20260510001438 0 131 0.0 0.0 0.00 0.01 0.01 1057.2
20260510000936 0 127 0.0 0.0 0.00 0.01 0.01 1056.9
20260510000433 0 129 0.0 0.0 0.00 0.01 0.01 1057.2
20260509235929 0 128 0.0 0.0 0.00 0.01 0.01 1056.9
20260509235426 0 136 0.0 0.0 0.00 0.01 0.01 1057.1
20260509234922 0 135 0.0 0.9 0.00 0.01 0.01 1057.0
20260509234419 0 129 0.0 0.0 0.00 0.01 0.01 1056.8
20260509233917 0 131 0.0 1.7 0.00 0.01 0.01 1057.0
20260509233414 0 270 3.5 4.3 0.00 0.01 0.01 1056.7
20260509232910 0 122 0.0 0.9 0.00 0.01 0.01 1056.8
20260509232408 0 131 0.9 0.9 0.00 0.01 0.01 1056.9
20260509231903 0 128 0.0 2.6 0.00 0.01 0.01 1056.8
20260509231400 0 155 0.9 4.3 0.00 0.01 0.01 1056.7
20260509230859 0 168 1.7 1.7 0.00 0.01 0.01 1057.1
20260509230355 0 186 2.6 4.3 0.00 0.01 0.01 1056.7
20260509225851 0 140 0.0 1.7 0.00 0.01 0.01 1057.1
20260509225348 0 174 1.7 4.3 0.00 0.01 0.01 1056.8
20260509224843 0 128 0.9 5.2 0.00 0.01 0.01 1056.6
20260509224340 0 123 0.9 6.1 0.00 0.01 0.01 1056.8
20260509223837 0 242 2.6 5.2 0.00 0.01 0.01 1056.9
20260509223333 0 268 1.7 2.6 0.00 0.01 0.01 1056.8
20260509222830 0 135 0.0 2.6 0.00 0.01 0.01 1056.9
20260509222326 0 272 2.6 2.6 0.00 0.01 0.01 1057.0
20260509221821 0 92 0.9 2.6 0.00 0.01 0.01 1056.8
20260509221319 0 299 2.6 5.2 0.00 0.01 0.01 1057.1
20260509220814 0 193 0.9 2.6 0.00 0.01 0.01 1056.7
20260509220310 0 161 1.7 2.6 0.00 0.01 0.01 1056.8
20260509215806 0 335 0.9 5.2 0.00 0.01 0.01 1056.8
20260509215305 0 245 1.7 2.6 0.00 0.01 0.01 1056.9
20260509214759 0 175 0.9 5.2 0.00 0.01 0.01 1056.8
20260509214257 0 215 3.5 4.3 0.00 0.01 0.01 1056.6
20260509213754 0 245 1.7 4.3 0.00 0.01 0.01 1056.8
20260509213249 0 250 3.5 6.1 0.00 0.01 0.01 1056.8
20260509212747 0 140 1.7 4.3 0.00 0.01 0.01 1056.8
20260509212244 0 260 4.3 6.1 0.00 0.01 0.01 1057.1
20260509211734 0 270 4.3 7.0 0.00 0.01 0.01 1056.9
20260509211231 0 286 4.3 6.1 0.00 0.01 0.01 1057.1
20260509210727 0 141 0.0 4.3 0.00 0.01 0.01 1057.0
20260509210225 0 331 3.5 5.2 0.00 0.01 0.01 1056.9
20260509205725 0 95 2.6 6.1 0.00 0.01 0.01 1057.3
20260509205224 0 155 0.9 2.6 0.00 0.01 0.01 1057.3
20260509204721 0 266 5.2 7.8 0.00 0.01 0.01 1057.2
20260509204217 0 177 1.7 1.7 0.00 0.01 0.01 1057.1
20260509203713 0 203 2.6 2.6 0.00 0.01 0.01 1057.1
20260509203211 0 136 1.7 4.3 0.00 0.01 0.01 1057.4
20260509202706 0 205 3.5 5.2 0.00 0.01 0.01 1057.4
20260509202202 0 274 2.6 7.0 0.00 0.01 0.01 1057.5
20260509201657 0 194 1.7 6.1 0.00 0.01 0.01 1057.6
20260509201154 0 295 1.7 6.1 0.00 0.01 0.01 1057.6
20260509200651 0 172 3.5 5.2 0.00 0.01 0.01 1057.4
20260509200146 0 91 1.7 7.0 0.00 0.01 0.01 1057.6
20260509195642 0 298 2.6 5.2 0.00 0.01 0.01 1057.5
20260509195137 0 289 2.6 5.2 0.00 0.01 0.01 1057.7
20260509194636 0 252 2.6 4.3 0.00 0.01 0.01 1057.6
20260509194134 0 70 1.7 4.3 0.00 0.01 0.01 1057.5
20260509193630 0 112 2.6 7.8 0.00 0.01 0.01 1057.6
20260509193125 0 236 3.5 6.1 0.00 0.01 0.01 1057.5
20260509192623 0 295 2.6 7.0 0.00 0.01 0.01 1057.7
20260509192117 0 178 2.6 4.3 0.00 0.01 0.01 1057.6
20260509191612 0 235 1.7 6.1 0.00 0.01 0.01 1057.5
20260509191108 0 306 1.7 5.2 0.00 0.01 0.01 1057.6
20260509190605 0 299 2.6 4.3 0.00 0.01 0.01 1057.5
20260509185600 0 145 1.7 5.2 0.00 0.01 0.01 1057.7
20260509185056 0 108 2.6 2.6 0.00 0.01 0.01 1057.5
20260509184555 0 162 0.9 7.0 0.00 0.01 0.01 1057.7
20260509184051 0 232 4.3 5.2 0.00 0.01 0.01 1057.7
20260509183546 0 242 2.6 6.1 0.00 0.01 0.01 1057.6
20260509183042 0 214 3.5 4.3 0.00 0.01 0.01 1057.5
20260509182539 0 250 4.3 9.6 0.00 0.01 0.01 1058.0
20260509182036 0 94 3.5 5.2 0.00 0.01 0.01 1057.7
20260509181534 0 258 2.6 7.0 0.00 0.01 0.01 1057.7
20260509181031 0 288 4.3 5.2 0.00 0.01 0.01 1058.2
20260509180526 0 239 4.3 7.0 0.00 0.01 0.01 1058.1
20260509180019 0 251 3.5 6.1 0.00 0.01 0.01 1058.2
20260509175514 0 228 2.6 7.0 0.00 0.01 0.01 1058.1
20260509175011 0 181 3.5 4.3 0.00 0.01 0.01 1058.3
20260509174508 0 152 3.5 7.0 0.00 0.01 0.01 1058.1
20260509174003 0 193 1.7 2.6 0.00 0.01 0.01 1058.0
20260509173457 0 178 1.7 4.3 0.00 0.01 0.01 1058.1
20260509172954 0 212 4.3 5.2 0.00 0.01 0.01 1058.1
20260509172451 0 292 2.6 4.3 0.00 0.01 0.01 1058.1
20260509171946 0 295 3.5 5.2 0.00 0.01 0.01 1058.2
20260509171443 0 115 3.5 7.0 0.00 0.01 0.01 1058.1
20260509170939 0 224 4.3 6.1 0.00 0.01 0.01 1058.4
20260509170435 0 170 0.9 4.3 0.00 0.01 0.01 1058.3
20260509165930 0 208 1.7 4.3 0.00 0.01 0.01 1058.2
20260509165425 0 232 4.3 6.1 0.00 0.01 0.01 1058.4
20260509164921 0 312 4.3 7.8 0.00 0.01 0.01 1058.5